Location: Poughquag
(41.6090°N, 73.6820°W)
Time: 02:48:25
(UTC-04:00)

Transit 2A Rocket - Pass Details

Date: 30 May 2020
Orbit: 584 x 919 km, 66.7° (Epoch: 06 July)

Event Time Altitude Azimuth Distance (km) Brightness Sun altitude
Rises 23:48:36 0° 230° (SW) 3,049 - -24.7°
Reaches altitude 10° 23:50:56 10° 237° (WSW) 2,187 - -24.8°
Exits shadow 23:52:30 20° 247° (WSW) 1,664 6.6 -24.9°
Maximum altitude 23:55:40 42° 308° (NW) 1,089 6.1 -25.1°
Drops below altitude 10° 00:00:55 10° 19° (NNE) 2,415 8.3 -25.3°
Sets 00:03:37 0° 26° (NNE) 3,404 9.1 -25.4°
